STARLINK-34199, 64924

Orbit data source: Space-Track

STARLINK-34199, 64924 is a payload satellite owned by SpaceX/Seattle (US) in LEO that was launched on Sat, 26 Jul 2025 UTC via an FALCON 9 launch vehicle from the Air Force Eastern Test Range (AFETR). Payload-class satellites include a variety of spacecraft equipped with specific instruments for various scientific and technological missions. These include communications satellites like Starlink; space stations such as the ISS; scientific satellites like the Hubble; Earth observation satellites from companies like Planet Labs, Umbra, and HawkEye 360; GPS; miniature CubeSats for education and research; and military/defense satellites.

Loading next visibility...
Identifier
64924, 2025-157W
Orbit
LEO
Country
Flag of USUS
Related business
Manufacturer
SpaceX/Seattle
Mission
Operational Commercial Communications
Bus & Motor
STARLINK V2MO, Unknown motor
Mass
575 kg wet, ~530 kg dry
Launch date (UTC)
2025-07-26 (10 months ago)
Launch vehicle
FALCON 9
Launch site
Air Force Eastern Test Range (AFETR)
Object type
Payload
Rocket body
Debris
Shape & HBR
Box + 2 Pan, 17.7 m
Radar Cross Section
36.964 m², Large (>1 m²)

Expand to show TLE details & history
Last TLE update: 7 hours ago

TLE from 7 hours ago
0 STARLINK-34199
1 64924U 25157W   26145.58267131  .00018631  00000-0  61022-3 0  9999
2 64924  53.1585 347.9956 0001535  96.5003 263.6173 15.31722695 47857
Epoch: 2026-05-25T13:59Z
TLE epoch observation values (Epoch: 2026-05-25T13:59:02.801Z)
Latitude
-0.00002°
Longitude
-104.93448°
Altitude
471.69 km
Speed
7.631 km/s
True Right ascension
23h 11m 58s
True Declination
0° 00' 00"
Sunlit
Object was in daylight at epoch
Visualization orbit readout
Latitude
Unknown
Longitude
Unknown
Altitude
Unknown
Speed
Unknown
Apparent Right ascension
Unknown
Apparent Declination
Unknown
Sunlit
N/A
Visualization observer readout
Local Sidereal Time
06:09:56
Azimuth
Unknown
Elevation
Unknown
Doppler factor
Unknown
Orbital elements
Apogee altitude
471.981 km
Perigee altitude
469.878 km
Semi-major axis
6,849.066 km
Eccentricity
0.00015
Inclination
53.1585°
RAAN
347.9956°
Arg. of periapsis
96.5003°
True anomaly
263.59982°
Mean anomaly
263.6173°
Eccentric anomaly
263.60856°
Mean motion
3.82909 °/min
Orbital period
94.02 mins
BSTAR
0.00061022
Loading maneuver chart data...
Computing Atmospheric mass density...
Loading historical data...
Loading historical data...
Loading historical data...
Loading historical data...
Loading historical data...
Loading historical data...
Loading historical data...

Documentation

Showing up to 5 results
|